FW7040 Weather Reports


time (UTC)temp
F
wind
direction
speed
knots
gust
knots
rain 1hr
in
rain 24hr
in
rain mn
in
humidity
%
barometer
mb
20260507005631 63 350 3.5 6.1 0.00 0.00 0.00 82 1015.8
20260507005127 63 341 2.6 5.2 0.00 0.00 0.00 82 1016.1
20260507004624 63 341 1.7 3.5 0.00 0.00 0.00 82 1016.0
20260507004122 63 270 0.9 1.7 0.00 0.00 0.00 82 1015.8
20260507003618 63 352 0.0 2.6 0.00 0.00 0.00 82 1015.8
20260507003113 63 0 2.6 4.3 0.00 0.00 0.00 82 1015.3
20260507002610 63 358 3.5 6.1 0.00 0.00 0.00 82 1015.4
20260507002105 63 342 1.7 4.3 0.00 0.00 0.00 82 1015.8
20260507001603 63 323 3.5 7.8 0.00 0.00 0.00 82 1015.2
20260507001100 63 335 4.3 6.1 0.00 0.00 0.00 82 1015.5
20260507000556 63 301 3.5 6.1 0.00 0.00 0.00 82 1015.6
20260507000052 63 281 2.6 4.3 0.00 0.00 0.00 82 1015.3
20260506235550 63 343 2.6 6.1 0.00 0.00 0.00 82 1015.6
20260506235044 62 310 2.6 8.7 0.00 0.00 0.00 82 1015.5
20260506234542 63 276 4.3 6.1 0.00 0.00 0.00 82 1015.2
20260506234039 63 60 1.7 9.6 0.00 0.00 0.00 82 1015.3
20260506233536 63 312 3.5 7.0 0.00 0.00 0.00 82 1015.7
20260506233033 62 345 4.3 9.6 0.00 0.00 0.00 82 1015.5
20260506232529 63 344 3.5 9.6 0.00 0.00 0.00 82 1015.1
20260506232025 63 7 1.7 6.1 0.00 0.00 0.00 82 1015.1
20260506231522 63 26 3.5 7.0 0.00 0.00 0.00 82 1015.4
20260506231020 63 292 4.3 5.2 0.00 0.00 0.00 82 1015.3
20260506230516 63 54 0.9 4.3 0.00 0.00 0.00 82 1015.2
20260506230014 62 346 3.5 7.8 0.00 0.00 0.00 83 1015.3
20260506225511 62 3 6.1 7.0 0.00 0.00 0.00 82 1015.4
20260506225007 62 26 7.0 7.0 0.00 0.00 0.00 82 1015.2
20260506224504 62 359 5.2 8.7 0.00 0.00 0.00 82 1015.4
20260506224000 62 356 1.7 8.7 0.00 0.00 0.00 82 1015.2
20260506223456 62 59 1.7 4.3 0.00 0.00 0.00 83 1015.4
20260506222953 62 5 3.5 8.7 0.00 0.00 0.00 82 1015.2
20260506222450 62 302 2.6 4.3 0.00 0.00 0.00 83 1015.2
20260506221946 62 2 7.0 9.6 0.00 0.00 0.00 83 1015.2
20260506221444 62 303 1.7 13.0 0.00 0.00 0.00 83 1015.0
20260506220942 62 293 5.2 9.6 0.00 0.00 0.00 83 1015.3
20260506220437 62 358 0.0 9.6 0.00 0.00 0.00 82 1015.1
20260506215934 62 3 7.8 9.6 0.00 0.00 0.00 83 1015.1
20260506215430 62 357 5.2 9.6 0.00 0.00 0.00 82 1015.4
20260506214926 62 9 3.5 9.6 0.00 0.00 0.00 81 1015.3
20260506214423 62 333 5.2 13.0 0.00 0.00 0.00 81 1015.4
20260506213921 63 336 3.5 10.4 0.00 0.00 0.00 81 1015.2
20260506213418 63 357 1.7 9.6 0.00 0.00 0.00 81 1015.0
20260506212915 63 308 3.5 11.3 0.00 0.00 0.00 81 1015.0
20260506212411 63 300 3.5 9.6 0.00 0.00 0.00 81 1015.1
20260506211906 63 300 2.6 11.3 0.00 0.00 0.00 81 1015.0
20260506211402 63 294 6.1 7.8 0.00 0.00 0.00 81 1015.2
20260506210900 63 359 7.8 11.3 0.00 0.00 0.00 81 1015.0
20260506210356 63 354 4.3 10.4 0.00 0.00 0.00 82 1015.1
20260506205854 63 345 5.2 11.3 0.00 0.00 0.00 81 1015.2
20260506205349 63 342 4.3 10.4 0.00 0.00 0.00 81 1015.1
20260506204846 63 346 7.0 8.7 0.00 0.00 0.00 82 1015.5
20260506204344 63 349 7.0 12.2 0.00 0.00 0.00 82 1015.6
20260506203841 63 308 5.2 13.0 0.00 0.00 0.00 81 1015.4
20260506203338 64 345 7.8 11.3 0.00 0.00 0.00 81 1015.4
20260506202835 64 318 5.2 13.9 0.00 0.00 0.00 81 1015.5
20260506202332 64 49 2.6 12.2 0.00 0.00 0.00 81 1015.5
20260506201828 65 309 7.0 9.6 0.00 0.00 0.00 81 1015.5
20260506201326 65 336 10.4 16.5 0.00 0.00 0.00 80 1015.2
20260506200823 65 358 5.2 13.9 0.00 0.00 0.00 80 1015.1
20260506200319 66 37 3.5 13.9 0.00 0.00 0.00 80 1015.1
20260506195815 66 306 6.1 8.7 0.00 0.00 0.00 81 1015.0
20260506195312 66 338 8.7 12.2 0.00 0.00 0.00 81 1015.0
20260506194809 67 288 5.2 12.2 0.00 0.00 0.00 81 1014.9
20260506194305 67 314 6.1 12.2 0.00 0.00 0.00 81 1014.8
20260506193803 68 14 6.1 7.0 0.00 0.00 0.00 81 1015.1
20260506193300 68 306 2.6 6.1 0.00 0.00 0.00 81 1014.8
20260506192756 68 21 1.7 4.3 0.00 0.00 0.00 83 1014.6
20260506192253 67 317 4.3 11.3 0.00 0.00 0.00 83 1015.0
20260506191750 67 348 5.2 12.2 0.00 0.00 0.00 83 1014.7
20260506191246 67 329 4.3 13.0 0.00 0.00 0.00 83 1015.0
20260506190744 68 342 5.2 13.0 0.00 0.00 0.00 83 1014.9
20260506190240 68 278 7.8 14.8 0.00 0.00 0.00 84 1014.7
20260506185737 68 254 7.8 14.8 0.00 0.00 0.00 84 1014.9
20260506185234 69 289 10.4 18.2 0.00 0.00 0.00 83 1015.0
20260506184731 70 283 7.8 19.1 0.00 0.00 0.00 82 1014.8
20260506184228 72 279 10.4 15.6 0.00 0.00 0.00 81 1014.7
20260506183725 74 292 7.8 10.4 0.00 0.00 0.00 80 1014.5
20260506183220 74 294 6.1 7.8 0.00 0.00 0.00 79 1014.5
20260506182718 75 283 5.2 7.0 0.00 0.00 0.00 78 1014.5
20260506182215 75 63 1.7 9.6 0.00 0.00 0.00 77 1014.3
20260506181713 75 61 2.6 9.6 0.00 0.00 0.00 77 1014.2
20260506181210 76 351 2.6 5.2 0.00 0.00 0.00 75 1014.2
20260506180707 76 315 2.6 2.6 0.00 0.00 0.00 74 1014.4
20260506180203 74 201 0.0 2.6 0.00 0.00 0.00 76 1014.5
20260506175659 75 115 1.7 5.2 0.00 0.00 0.00 75 1014.4
20260506175156 76 124 4.3 5.2 0.00 0.00 0.00 73 1014.5
20260506174649 76 95 0.0 6.1 0.00 0.00 0.00 75 1014.2
20260506174145 74 126 3.5 7.0 0.00 0.00 0.00 75 1014.1
20260506173643 73 135 0.0 6.1 0.00 0.00 0.00 76 1014.2
20260506173134 73 165 0.0 0.9 0.00 0.00 0.00 78 1014.4
20260506172631 71 114 2.6 4.3 0.00 0.00 0.00 78 1014.2
20260506172127 72 71 1.7 5.2 0.00 0.00 0.00 77 1014.2
20260506171625 71 90 1.7 5.2 0.00 0.00 0.00 79 1014.4
20260506171122 71 70 1.7 6.1 0.00 0.00 0.00 79 1014.5
20260506170619 70 71 3.5 6.1 0.00 0.00 0.00 81 1014.6
20260506170111 70 76 2.6 9.6 0.00 0.00 0.00 82 1014.5
20260506165610 69 53 0.0 7.0 0.00 0.00 0.00 83 1014.3
20260506165105 69 96 0.9 3.5 0.00 0.00 0.00 85 1014.4
20260506164603 69 90 0.0 2.6 0.00 0.00 0.00 86 1014.6
20260506164100 68 117 0.0 4.3 0.00 0.00 0.00 87 1014.7
20260506163555 67 90 1.7 6.1 0.00 0.00 0.00 87 1014.7
20260506163051 67 196 0.0 5.2 0.00 0.00 0.00 88 1014.7
20260506162548 64 53 3.5 4.3 0.00 0.00 0.00 87 1015.2
20260506162045 64 252 1.7 4.3 0.00 0.00 0.00 87 1015.3
20260506161543 64 114 1.7 7.8 0.00 0.00 0.00 87 1015.0
20260506161039 63 52 3.5 3.5 0.00 0.00 0.00 86 1016.2
20260506160537 63 2 2.6 7.8 0.00 0.00 0.00 86 1016.6
20260506160034 64 273 9.6 12.2 0.00 0.00 0.00 86 1017.2
20260506155532 64 315 7.8 12.2 0.00 0.00 0.00 86 1016.1
20260506153709 66 350 7.0 17.4 0.00 0.00 0.00 87 1014.9
20260506153207 66 0 2.6 18.2 0.00 0.00 0.00 87 1014.5
20260506152703 67 348 9.6 17.4 0.00 0.00 0.00 87 1014.9
20260506152201 67 307 6.1 20.9 0.00 0.00 0.00 87 1014.6
20260506151700 67 20 8.7 20.0 0.00 0.00 0.00 87 1014.7
20260506151156 68 14 8.7 14.8 0.00 0.00 0.00 86 1014.3
20260506150652 69 9 5.2 17.4 0.00 0.00 0.00 87 1014.5
20260506150150 70 18 6.1 16.5 0.00 0.00 0.00 86 1014.4
20260506145646 74 299 2.6 13.0 0.00 0.00 0.00 85 1014.2
20260506145143 77 106 0.0 2.6 0.00 0.00 0.00 88 1013.9
20260506144641 77 90 1.7 3.5 0.00 0.00 0.00 88 1013.6
20260506144137 77 113 2.6 5.2 0.00 0.00 0.00 88 1013.3
20260506143635 77 115 4.3 7.0 0.00 0.00 0.00 88 1012.7
20260506143133 77 120 8.7 8.7 0.00 0.00 0.00 88 1013.2
20260506142631 77 115 5.2 5.2 0.00 0.00 0.00 89 1012.8
20260506142129 77 117 4.3 5.2 0.00 0.00 0.00 89 1012.7
20260506141626 77 144 4.3 5.2 0.00 0.00 0.00 89 1012.5
20260506141125 77 110 1.7 4.3 0.00 0.00 0.00 89 1012.5
20260506140622 77 82 0.9 5.2 0.00 0.00 0.00 89 1012.5
20260506140119 76 108 4.3 5.2 0.00 0.00 0.00 90 1012.9
20260506135615 76 90 2.6 5.2 0.00 0.00 0.00 90 1012.8
20260506135112 76 99 3.5 6.1 0.00 0.00 0.00 90 1013.0
20260506134608 76 95 0.0 6.1 0.00 0.00 0.00 90 1012.7
20260506134104 76 121 0.0 7.0 0.00 0.00 0.00 90 1012.4
20260506133602 76 105 0.0 4.3 0.00 0.00 0.00 90 1012.5
20260506133059 76 124 2.6 4.3 0.00 0.00 0.00 90 1012.5
20260506132556 76 87 2.6 3.5 0.00 0.00 0.00 90 1012.5
20260506132053 76 120 0.0 4.3 0.00 0.00 0.00 91 1012.4
20260506131550 76 112 2.6 4.3 0.00 0.00 0.00 91 1012.6
20260506131046 76 113 1.7 7.0 0.00 0.00 0.00 91 1012.4
20260506130543 76 15 0.0 4.3 0.00 0.00 0.00 91 1012.0
20260506130041 76 98 0.9 4.3 0.00 0.00 0.00 91 1011.9
20260506125539 76 85 3.5 5.2 0.00 0.00 0.00 91 1011.8
20260506125036 76 115 1.7 6.1 0.00 0.00 0.00 91 1011.7
20260506124534 75 121 1.7 4.3 0.00 0.00 0.00 91 1011.9
20260506124032 75 83 2.6 7.0 0.00 0.00 0.00 91 1011.7
20260506123529 76 106 1.7 5.2 0.00 0.00 0.00 91 1011.6
20260506123027 75 102 1.7 4.3 0.00 0.00 0.00 92 1011.6
20260506122524 75 118 0.0 4.3 0.00 0.00 0.00 91 1011.6
20260506122022 75 103 0.9 3.5 0.00 0.00 0.00 91 1011.7
20260506121519 75 98 0.0 1.7 0.00 0.00 0.00 91 1011.6
20260506121015 75 90 0.0 1.7 0.00 0.00 0.00 91 1011.7
20260506120514 75 106 0.0 2.6 0.00 0.00 0.00 91 1011.8
20260506120010 75 114 2.6 2.6 0.00 0.00 0.00 91 1011.7
20260506115508 75 81 0.0 2.6 0.00 0.00 0.00 91 1011.4
20260506115007 75 94 2.6 2.6 0.00 0.00 0.00 91 1011.6
20260506114503 75 83 0.0 2.6 0.00 0.00 0.00 91 1011.3
20260506114002 75 79 2.6 2.6 0.00 0.00 0.00 91 1011.4
20260506113459 75 90 0.0 2.6 0.00 0.00 0.00 90 1011.5
20260506112956 75 105 0.0 2.6 0.00 0.00 0.00 90 1011.5
20260506112453 75 82 0.9 2.6 0.00 0.00 0.00 90 1011.8
20260506111950 75 68 0.0 2.6 0.00 0.00 0.00 90 1011.8
20260506111449 75 342 0.0 0.9 0.00 0.00 0.00 90 1011.6
20260506110945 75 99 0.0 0.0 0.00 0.00 0.00 90 1011.7
20260506110443 75 83 0.0 1.7 0.00 0.00 0.00 90 1011.7
20260506105939 75 294 0.0 1.7 0.00 0.00 0.00 90 1011.7
20260506105436 75 83 0.0 0.0 0.00 0.00 0.00 90 1011.7
20260506104933 76 99 0.0 0.9 0.00 0.00 0.00 90 1011.8
20260506104431 76 77 0.9 0.9 0.00 0.00 0.00 90 1011.7
20260506103929 76 200 0.0 0.9 0.00 0.00 0.00 90 1011.5
20260506103427 75 188 0.0 0.0 0.00 0.00 0.00 90 1011.5
20260506102923 76 188 0.0 0.0 0.00 0.00 0.00 89 1011.4
20260506102421 76 126 0.0 0.9 0.00 0.00 0.00 90 1011.3
20260506101918 76 209 0.0 0.0 0.00 0.00 0.00 89 1011.4
20260506101414 76 203 0.0 0.9 0.00 0.00 0.00 89 1011.2
20260506100912 76 154 0.0 2.6 0.00 0.00 0.00 89 1011.1
20260506100410 76 203 0.0 1.7 0.00 0.00 0.00 89 1011.2
20260506095908 76 233 2.6 2.6 0.00 0.00 0.00 89 1011.1
20260506095406 76 183 2.6 2.6 0.00 0.00 0.00 89 1011.0
20260506094902 76 206 0.0 4.3 0.00 0.00 0.00 89 1010.8
20260506094401 76 194 0.0 4.3 0.00 0.00 0.00 89 1010.8
20260506093858 76 195 1.7 6.1 0.00 0.00 0.00 88 1010.9
20260506093355 76 172 0.0 5.2 0.00 0.00 0.00 88 1010.9
20260506092853 76 194 3.5 5.2 0.00 0.00 0.00 88 1010.8
20260506092351 76 201 2.6 3.5 0.00 0.00 0.00 88 1010.6
20260506091847 76 151 4.3 7.0 0.00 0.00 0.00 88 1010.8
20260506091345 76 148 2.6 4.3 0.00 0.00 0.00 88 1010.9
20260506090842 77 173 0.9 4.3 0.00 0.00 0.00 88 1010.6
20260506090340 77 153 3.5 5.2 0.00 0.00 0.00 88 1010.5
20260506085836 76 205 5.2 6.1 0.00 0.00 0.00 88 1010.5
20260506085332 76 143 4.3 6.1 0.00 0.00 0.00 88 1010.2
20260506084829 77 149 5.2 7.0 0.00 0.00 0.00 87 1010.4
20260506084326 77 153 4.3 6.1 0.00 0.00 0.00 87 1010.4
20260506083823 77 127 1.7 5.2 0.00 0.00 0.00 87 1010.4
20260506083320 77 133 2.6 4.3 0.00 0.00 0.00 87 1010.4
20260506082818 77 144 0.0 4.3 0.00 0.00 0.00 87 1010.7
20260506082314 77 160 2.6 4.3 0.00 0.00 0.00 86 1010.7
20260506081810 77 140 2.6 5.2 0.00 0.00 0.00 87 1010.4
20260506081308 77 164 2.6 3.5 0.00 0.00 0.00 87 1010.5
20260506080806 77 139 4.3 6.1 0.00 0.00 0.00 86 1010.8
20260506080302 77 131 1.7 5.2 0.00 0.00 0.00 86 1010.5
20260506073246 77 154 2.6 9.6 0.00 0.00 0.00 87 1010.7
20260506072743 77 148 7.0 10.4 0.00 0.00 0.00 87 1011.1
20260506072240 77 153 7.8 12.2 0.00 0.00 0.00 87 1010.9
20260506071738 77 100 2.6 13.0 0.00 0.00 0.00 87 1011.0
20260506071236 77 150 6.1 9.6 0.00 0.00 0.00 87 1011.1
20260506070732 77 152 7.0 15.6 0.00 0.00 0.00 87 1010.9
20260506070229 77 171 1.7 8.7 0.00 0.00 0.00 87 1010.9
20260506062206 77 148 7.8 11.3 0.00 0.00 0.00 87 1010.9
20260506061702 77 145 7.0 8.7 0.00 0.00 0.00 87 1010.8
20260506061200 77 140 9.6 9.6 0.00 0.00 0.00 87 1010.9
20260506060659 77 137 4.3 9.6 0.00 0.00 0.00 87 1010.9
20260506060155 76 153 10.4 13.0 0.00 0.00 0.00 87 1010.6
20260506051127 77 154 5.2 11.3 0.00 0.00 0.00 87 1010.8
20260506050625 77 151 6.1 13.0 0.00 0.00 0.00 87 1010.8
20260506050122 77 148 1.7 10.4 0.00 0.00 0.00 87 1011.0
20260506045115 77 110 1.7 8.7 0.00 0.00 0.00 87 1011.0
20260506044613 77 139 6.1 8.7 0.00 0.00 0.00 87 1010.8
20260506044110 77 124 5.2 7.8 0.00 0.00 0.00 87 1010.7
20260506043607 77 145 6.1 9.6 0.00 0.00 0.00 87 1010.7
20260506043105 77 124 5.2 8.7 0.00 0.00 0.00 87 1010.9
20260506042604 77 157 6.1 7.0 0.00 0.00 0.00 86 1010.6
20260506042102 78 149 2.6 5.2 0.00 0.00 0.00 86 1011.0
20260506041600 78 145 3.5 6.1 0.00 0.00 0.00 86 1010.9
20260506041056 78 90 2.6 6.1 0.00 0.00 0.00 86 1010.7
20260506040554 78 139 3.5 7.8 0.00 0.00 0.00 86 1010.8
20260506040050 78 128 5.2 7.8 0.00 0.00 0.00 85 1010.6
20260506035547 78 142 6.1 7.8 0.00 0.00 0.00 85 1010.6
20260506035044 78 117 4.3 8.7 0.00 0.00 0.00 85 1010.4
20260506034542 78 116 3.5 7.8 0.00 0.00 0.00 85 1010.2
20260506034038 78 113 5.2 6.1 0.00 0.00 0.00 84 1010.3
20260506033536 78 108 2.6 7.8 0.00 0.00 0.00 84 1010.2
20260506033032 79 130 4.3 8.7 0.00 0.00 0.00 83 1010.2
20260506032530 78 93 2.6 7.0 0.00 0.00 0.00 83 1010.4
20260506032026 79 121 4.3 7.0 0.00 0.00 0.00 82 1010.2
20260506031524 80 99 1.7 5.2 0.00 0.00 0.00 82 1010.2
20260506031021 79 139 4.3 7.0 0.00 0.00 0.00 82 1010.1
20260506030519 79 141 4.3 6.1 0.00 0.00 0.00 82 1010.2
20260506030016 79 106 3.5 4.3 0.00 0.00 0.00 82 1009.8
20260506025513 80 129 6.1 7.0 0.00 0.00 0.00 81 1009.9
20260506025009 80 163 1.7 4.3 0.00 0.00 0.00 80 1009.8
20260506024506 80 160 2.6 6.1 0.00 0.00 0.00 81 1009.9
20260506024002 80 125 4.3 5.2 0.00 0.00 0.00 81 1009.6
20260506023458 80 153 3.5 6.1 0.00 0.00 0.00 80 1009.5
20260506022955 80 138 2.6 5.2 0.00 0.00 0.00 80 1009.6
20260506022453 80 135 3.5 6.1 0.00 0.00 0.00 80 1009.4
20260506021951 80 123 4.3 5.2 0.00 0.00 0.00 79 1009.2
20260506021448 81 157 2.6 6.1 0.00 0.00 0.00 79 1009.0
20260506020945 80 142 1.7 4.3 0.00 0.00 0.00 79 1009.0
20260506020443 80 168 1.7 8.7 0.00 0.00 0.00 79 1009.1
20260506015940 81 114 3.5 6.1 0.00 0.00 0.00 78 1008.9
20260506015437 81 114 4.3 5.2 0.00 0.00 0.00 78 1008.8
20260506014934 81 147 3.5 6.1 0.00 0.00 0.00 77 1008.7
20260506014431 81 144 4.3 7.0 0.00 0.00 0.00 77 1008.5
20260506013927 81 119 7.0 7.8 0.00 0.00 0.00 77 1008.5
20260506013426 81 113 7.0 7.0 0.00 0.00 0.00 76 1008.7
20260506012921 82 135 3.5 5.2 0.00 0.00 0.00 76 1008.5
20260506012418 82 140 4.3 5.2 0.00 0.00 0.00 75 1008.6
20260506011915 82 123 2.6 6.1 0.00 0.00 0.00 75 1008.7
20260506011412 82 135 4.3 8.7 0.00 0.00 0.00 75 1008.7
20260506010909 82 143 7.8 8.7 0.00 0.00 0.00 75 1008.6
20260506010408 82 135 4.3 7.8 0.00 0.00 0.00 74 1008.6